Location: Jalan Sepang
(2.8072°N, 101.8021°E)
Time: 04:57:33
(UTC+00:00)

Sich 1 Rocket - Pass Details

Date: 15 May 2026
Orbit: 612 x 645 km, 82.5° (Epoch: 7 June)

Event Time Altitude Azimuth Distance (km) Brightness Sun altitude
Rises 12:33:12 0° 187° (S) 2,882 6.8 -18.8°
Reaches altitude 10° 12:35:26 10° 189° (S) 1,972 6.0 -19.3°
Maximum altitude 12:39:47 74° 273° (W) 637 3.7 -20.4°
Drops below altitude 10° 12:44:06 10° 359° (N) 1,958 6.4 -21.4°
Sets 12:46:19 0° 1° (N) 2,859 7.2 -21.9°
